Location: Barcelona
(41.3830°N, 2.1830°E)
Time: 12:29:00
(UTC+01:00)

ISS - Pass Details

Date: 26 October 2020
Orbit: 417 x 420 km, 51.6° (Epoch: 29 October)

Event Time Altitude Azimuth Distance (km) Brightness Sun altitude
Exits shadow 06:40:08 10° 279° (W) 1,515 -1.6 -7.4°
Reaches altitude 10° 06:40:12 10° 279° (W) 1,493 -1.7 -7.4°
Maximum altitude 06:43:03 25° 338° (NNW) 877 -2.4 -6.9°
Drops below altitude 10° 06:45:56 10° 37° (NE) 1,498 -0.6 -6.3°
Sets 06:48:16 0° 51° (NE) 2,364 0.7 -5.9°
